This is the latest recevied weather packets stored in our database for station/object W4CKA. If no packets are shown the sender has not sent any weather packets the latest 10 day(s).
| Time | Temp. | Humidity | Pressure | Rain* | Wind** | Luminosity | Snow |
|---|---|---|---|---|---|---|---|
| 1787902781 | 20° C | 99% | 1058 hPa | 0 mm | - | 0 W/m² | - |
| 1787902178 | 20° C | 99% | 1058 hPa | 0 mm | - | 0 W/m² | - |
| 1787901573 | 19.44° C | 99% | 1058 hPa | 0 mm | - | 0 W/m² | - |
| 1787900970 | 20° C | 99% | 1058 hPa | 0 mm | - | 0 W/m² | - |
| 1787900365 | 20° C | 99% | 1057.9 hPa | 0 mm | - | 0 W/m² | - |
| 1787899761 | 20° C | 99% | 1057.9 hPa | 0 mm | - | 0 W/m² | - |
| 1787899157 | 20.56° C | 99% | 1057.8 hPa | 0 mm | - | 0 W/m² | - |
| 1787898552 | 20.56° C | 99% | 1057.7 hPa | 0 mm | - | 0 W/m² | - |
| 1787897952 | 20° C | 99% | 1057.8 hPa | 0 mm | - | 0 W/m² | - |
| 1787897352 | 20.56° C | 99% | 1057.8 hPa | 0 mm | - | 0 W/m² | - |
| 1787896751 | 20.56° C | 99% | 1058 hPa | 0 mm | - | 0 W/m² | - |
| 1787896149 | 20.56° C | 99% | 1058.2 hPa | 0 mm | - | 0 W/m² | - |
| 1787895545 | 20.56° C | 99% | 1058 hPa | 0 mm | - | 0 W/m² | - |
| 1787894942 | 20.56° C | 99% | 1058 hPa | 0 mm | - | 0 W/m² | - |
| 1787894336 | 20.56° C | 99% | 1057.9 hPa | 0 mm | - | 0 W/m² | - |
| 1787893734 | 20.56° C | 99% | 1058.1 hPa | 0 mm | - | 0 W/m² | - |
| 1787893130 | 21.11° C | 99% | 1058.1 hPa | 0 mm | - | 0 W/m² | - |
| 1787892529 | 20.56° C | 99% | 1058.1 hPa | 0 mm | - | 0 W/m² | - |
| 1787891925 | 21.11° C | 99% | 1057.9 hPa | 0 mm | - | 0 W/m² | - |
| 1787891322 | 21.11° C | 99% | 1057.8 hPa | 0 mm | - | 0 W/m² | - |
| 1787890722 | 21.67° C | 99% | 1058.1 hPa | 0 mm | - | 0 W/m² | - |
| 1787890118 | 21.67° C | 99% | 1058.1 hPa | 0 mm | - | 0 W/m² | - |
| 1787889513 | 21.67° C | 99% | 1057.9 hPa | 0 mm | - | 0 W/m² | - |
| 1787888914 | 21.67° C | 98% | 1057.8 hPa | 0 mm | - | 0 W/m² | - |
| 1787888309 | 21.67° C | 98% | 1057.9 hPa | 0 mm | - | 0 W/m² | - |
* Rain latest hour (hover to see other rain measurements)
** Current wind speed in m/s (hover to see current wind gust speed)